User: anonymous   Login
Location: Unspecified
(0.0000°N, 0.0000°E)
Time: 02:55:28
(UTC+00:00)
Language:

STARLINK-3232 - Orbit

View from above orbital plane
View from above orbital plane
View from above satellite
View from above satellite

Ground track
Ground track

The orbit is defined by the following mean orbital elements,

1 50809U          26145.45012860 +.00000000 +00000-0 -17790-3 0 00007
2 50809  53.2115 174.5317 0001150 102.9372 257.1748 15.08849538    05
Epoch (UTC): 25 May 2026 10:48:11
Eccentricity: 0.0001150
inclination: 53.2115°
perigee height: 539 km
apogee height: 541 km
right ascension of ascending node: 174.5317°
argument of perigee: 102.9372°
revolutions per day: 15.08849538
mean anomaly at epoch: 257.1748°

The dashed part of the orbit path shows where the satellite is in the earth's shadow,  

DLR